Hourly Weather Bolshie Malamasy

Today, 4 August, Wednesday

Time Temperature Precipitation Wind Pressure Humidity
00:00 +20°C° 0.1 mm 2 mps 752 mmHg 93%
01:00 +20°C° 0 mm 2 mps 752 mmHg 93%
02:00 +20°C° 0 mm 2 mps 752 mmHg 94%
03:00 +20°C° 0 mm 2 mps 752 mmHg 93%
04:00 +21°C° 0.1 mm 1 mps 752 mmHg 92%
05:00 +22°C° 0.1 mm 1 mps 752 mmHg 90%
06:00 +22°C° 0.1 mm 1 mps 752 mmHg 89%
07:00 +23°C° 0.1 mm 1 mps 752 mmHg 85%
08:00 +24°C° 0.1 mm 2 mps 753 mmHg 81%
09:00 +24°C° 0 mm 3 mps 753 mmHg 78%
10:00 +24°C° 0.6 mm 3 mps 753 mmHg 79%
11:00 +23°C° 0.6 mm 2 mps 753 mmHg 80%
12:00 +23°C° 0.6 mm 2 mps 753 mmHg 81%
13:00 +23°C° 0.2 mm 2 mps 753 mmHg 76%
14:00 +24°C° 0.2 mm 2 mps 754 mmHg 71%
15:00 +25°C° 0.2 mm 2 mps 754 mmHg 67%
16:00 +25°C° 0 mm 2 mps 754 mmHg 66%
17:00 +25°C° 0 mm 2 mps 754 mmHg 66%
18:00 +25°C° 0 mm 2 mps 754 mmHg 66%
19:00 +23°C° 0 mm 1 mps 754 mmHg 68%
20:00 +22°C° 0 mm 1 mps 754 mmHg 71%
21:00 +21°C° 0 mm 1 mps 754 mmHg 74%
22:00 +20°C° 0 mm 1 mps 754 mmHg 75%
23:00 +20°C° 0 mm 1 mps 754 mmHg 77%

Tomorrow, 5 August, Thursday

Time Temperature Precipitation Wind Pressure Humidity
00:00 +18°C° 0 mm 2 mps 755 mmHg 78%
01:00 +18°C° 0 mm 2 mps 755 mmHg 76%
02:00 +18°C° 0 mm 2 mps 755 mmHg 74%
03:00 +17°C° 0 mm 2 mps 755 mmHg 71%
04:00 +18°C° 0 mm 2 mps 755 mmHg 72%
05:00 +18°C° 0 mm 2 mps 755 mmHg 72%
06:00 +18°C° 0 mm 3 mps 756 mmHg 72%
07:00 +19°C° 0 mm 3 mps 756 mmHg 67%
08:00 +21°C° 0 mm 3 mps 756 mmHg 62%
09:00 +22°C° 0 mm 4 mps 756 mmHg 56%
10:00 +23°C° 0 mm 4 mps 756 mmHg 50%
11:00 +25°C° 0 mm 4 mps 756 mmHg 43%
12:00 +26°C° 0 mm 4 mps 757 mmHg 37%
13:00 +26°C° 0 mm 4 mps 756 mmHg 36%
14:00 +26°C° 0 mm 4 mps 756 mmHg 34%
15:00 +26°C° 0 mm 4 mps 756 mmHg 33%
16:00 +25°C° 0 mm 4 mps 756 mmHg 38%
17:00 +24°C° 0 mm 3 mps 757 mmHg 43%
18:00 +23°C° 0 mm 2 mps 757 mmHg 48%
19:00 +21°C° 0 mm 2 mps 757 mmHg 50%
20:00 +19°C° 0 mm 2 mps 757 mmHg 52%
21:00 +18°C° 0 mm 2 mps 757 mmHg 55%
22:00 +17°C° 0 mm 2 mps 757 mmHg 58%
23:00 +16°C° 0 mm 1 mps 757 mmHg 61%

Day after tomorrow, 6 August, Friday

Time Temperature Precipitation Wind Pressure Humidity
00:00 +15°C° 0 mm 1 mps 757 mmHg 64%
01:00 +15°C° 0 mm 1 mps 757 mmHg 65%
02:00 +14°C° 0 mm 1 mps 758 mmHg 65%
03:00 +14°C° 0 mm 1 mps 758 mmHg 66%
04:00 +15°C° 0 mm 1 mps 758 mmHg 64%
05:00 +16°C° 0 mm 1 mps 758 mmHg 63%
06:00 +18°C° 0 mm 1 mps 758 mmHg 61%
07:00 +20°C° 0 mm 1 mps 758 mmHg 55%
08:00 +22°C° 0 mm 1 mps 758 mmHg 48%
09:00 +24°C° 0 mm 1 mps 758 mmHg 42%
10:00 +24°C° 0 mm 1 mps 758 mmHg 39%
11:00 +25°C° 0 mm 1 mps 758 mmHg 36%
12:00 +26°C° 0 mm 1 mps 758 mmHg 33%
13:00 +26°C° 0 mm 1 mps 758 mmHg 33%
14:00 +26°C° 0 mm 1 mps 757 mmHg 33%
15:00 +26°C° 0 mm 1 mps 757 mmHg 33%
16:00 +26°C° 0 mm 1 mps 757 mmHg 38%
17:00 +25°C° 0 mm 1 mps 757 mmHg 43%
18:00 +24°C° 0 mm 2 mps 757 mmHg 48%
19:00 +23°C° 0 mm 2 mps 757 mmHg 48%
20:00 +21°C° 0 mm 2 mps 757 mmHg 48%
21:00 +20°C° 0 mm 2 mps 757 mmHg 48%
22:00 +20°C° 0 mm 3 mps 757 mmHg 48%
23:00 +20°C° 0 mm 3 mps 757 mmHg 48%

7 August, Saturday

Time Temperature Precipitation Wind Pressure Humidity
00:00 +20°C° 0 mm 3 mps 757 mmHg 48%
01:00 +19°C° 0 mm 3 mps 757 mmHg 51%
02:00 +18°C° 0 mm 3 mps 757 mmHg 53%
03:00 +17°C° 0 mm 3 mps 757 mmHg 56%
04:00 +18°C° 0 mm 2 mps 757 mmHg 58%
05:00 +18°C° 0 mm 2 mps 757 mmHg 59%
06:00 +18°C° 0 mm 2 mps 757 mmHg 60%
07:00 +20°C° 0 mm 2 mps 757 mmHg 56%
08:00 +21°C° 0 mm 3 mps 757 mmHg 51%
09:00 +24°C° 0 mm 3 mps 757 mmHg 46%
10:00 +26°C° 0 mm 3 mps 757 mmHg 43%
11:00 +27°C° 0 mm 3 mps 757 mmHg 39%
12:00 +29°C° 0 mm 3 mps 757 mmHg 35%
13:00 +29°C° 0 mm 3 mps 757 mmHg 36%
14:00 +29°C° 0 mm 2 mps 756 mmHg 38%
15:00 +29°C° 0 mm 2 mps 756 mmHg 39%
16:00 +28°C° 0 mm 2 mps 756 mmHg 42%
17:00 +27°C° 0 mm 1 mps 756 mmHg 46%
18:00 +27°C° 0 mm 1 mps 756 mmHg 49%
19:00 +25°C° 0 mm 2 mps 756 mmHg 52%
20:00 +24°C° 0 mm 2 mps 757 mmHg 54%
21:00 +23°C° 0 mm 2 mps 757 mmHg 56%
22:00 +21°C° 0 mm 2 mps 757 mmHg 58%
23:00 +20°C° 0 mm 2 mps 757 mmHg 59%

8 August, Sunday

Time Temperature Precipitation Wind Pressure Humidity
00:00 +20°C° 0 mm 2 mps 757 mmHg 60%
01:00 +19°C° 0 mm 2 mps 757 mmHg 61%
02:00 +18°C° 0 mm 2 mps 758 mmHg 63%
03:00 +19°C° 0 mm 1 mps 758 mmHg 65%
04:00 +19°C° 0 mm 1 mps 758 mmHg 63%
05:00 +20°C° 0 mm 1 mps 758 mmHg 62%
06:00 +21°C° 0 mm 1 mps 758 mmHg 60%
07:00 +23°C° 0 mm 1 mps 758 mmHg 55%
08:00 +25°C° 0 mm 2 mps 758 mmHg 50%
09:00 +27°C° 0 mm 2 mps 758 mmHg 45%
10:00 +28°C° 0 mm 2 mps 758 mmHg 41%
11:00 +30°C° 0 mm 2 mps 758 mmHg 38%
12:00 +31°C° 0 mm 2 mps 758 mmHg 34%
13:00 +32°C° 0 mm 2 mps 758 mmHg 33%
14:00 +32°C° 0 mm 2 mps 757 mmHg 32%
15:00 +32°C° 0 mm 2 mps 757 mmHg 32%
16:00 +31°C° 0 mm 3 mps 757 mmHg 37%
17:00 +29°C° 0 mm 3 mps 757 mmHg 43%
18:00 +28°C° 0 mm 4 mps 757 mmHg 49%
19:00 +26°C° 0 mm 4 mps 758 mmHg 57%
20:00 +22°C° 0 mm 5 mps 758 mmHg 65%
21:00 +20°C° 0 mm 5 mps 758 mmHg 73%
22:00 +19°C° 0 mm 5 mps 759 mmHg 74%
23:00 +18°C° 0 mm 4 mps 759 mmHg 76%

9 August, Monday

Time Temperature Precipitation Wind Pressure Humidity
00:00 +17°C° 0 mm 4 mps 759 mmHg 77%
01:00 +17°C° 0 mm 4 mps 759 mmHg 76%
02:00 +17°C° 0 mm 4 mps 759 mmHg 76%
03:00 +15°C° 0 mm 4 mps 759 mmHg 75%
04:00 +17°C° 0 mm 4 mps 759 mmHg 71%
05:00 +17°C° 0 mm 4 mps 759 mmHg 67%
06:00 +17°C° 0 mm 4 mps 759 mmHg 63%
07:00 +19°C° 0 mm 4 mps 759 mmHg 58%
08:00 +20°C° 0 mm 4 mps 759 mmHg 52%
09:00 +22°C° 0 mm 5 mps 759 mmHg 47%
10:00 +23°C° 0 mm 4 mps 759 mmHg 44%
11:00 +25°C° 0 mm 4 mps 759 mmHg 42%
12:00 +26°C° 0 mm 4 mps 759 mmHg 39%
13:00 +26°C° 0 mm 4 mps 759 mmHg 38%
14:00 +27°C° 0 mm 4 mps 758 mmHg 37%
15:00 +27°C° 0 mm 4 mps 758 mmHg 36%
16:00 +26°C° 0 mm 4 mps 759 mmHg 39%
17:00 +24°C° 0 mm 3 mps 759 mmHg 41%
18:00 +23°C° 0 mm 2 mps 759 mmHg 44%
19:00 +21°C° 0 mm 3 mps 759 mmHg 47%
20:00 +20°C° 0 mm 3 mps 759 mmHg 49%
21:00 +19°C° 0 mm 3 mps 759 mmHg 51%
22:00 +18°C° 0 mm 3 mps 759 mmHg 54%
23:00 +17°C° 0 mm 2 mps 759 mmHg 56%
Show more

We Need Your Consent

Meteoprog and our Service Providers may store and access personal data such as cookies, device identifiers or other similar technologies on your device and process such data to personalise content and ads, as well as provide social media features and to analyse the traffic.

  • Store and/or access information on your device

    Cookies, device identifiers or other information can be stored or accessed on your device for the purposes indicated above.

  • Personalised ads and content, ad and content measurement, audience insights, and products development

    Ads and content can be personalised based on a profile. More data can be added to better personalise ads and content. Ad and content performance can be measured. Insights about the audience who saw the ads and content can be derived. Such data can be used to develop or improve user’s experience, systems and software.

By clicking ‘I Agree’ you will allow the use of indicated cookies, device identifiers, web beacons or other similar technologies. Your settings can be changed in the browser on your device.

For certain purposes, legitimate interests may be relied on, rather than consent. You can read more about this in our Privacy and Cookie Policy.